Wind_Speed
11 10 9 10 10 7 2 0 3 7 9 8 7 7 8 8 8 7 5 4 6 8 7 8 7 7 8 8 8 8 8 9 5 3 5 5 3 2 4 5 1 2 1 3 4
11 11 10 11 10 7 3 6 9 10 11 11 10 9 9 9 8 5 2 2 5 4 3 3 3 3 4 6 7 7 9 6 4 4 4 3 3 2 3 5 2 2 2 1 2
10 12 11 12 10 6 7 8 9 11 12 12 12 11 10 9 8 6 4 3 3 2 3 3 3 1 4 6 6 9 9 7 3 2 5 6 5 2 4 9 5 4 3 0 0
7 11 12 12 11 8 9 10 11 12 12 11 11 11 11 10 8 7 6 5 4 3 4 4 4 3 1 2 5 5 9 5 1 3 4 4 6 5 4 5 6 7 2 3 3
5 10 12 13 11 11 13 13 12 12 10 9 9 9 8 8 7 7 7 7 6 5 5 5 6 5 6 5 5 2 5 5 1 3 5 5 3 4 5 4 2 1 2 4 6
7 10 12 14 14 15 15 14 12 9 8 7 7 7 5 5 4 3 3 3 4 5 5 5 4 5 6 7 3 6 4 4 0 4 3 4 4 3 2 2 4 5 6 5 7
9 10 13 14 16 16 15 13 10 8 7 5 5 5 4 3 1 1 2 2 3 3 4 5 4 5 5 6 4 3 4 3 3 8 6 4 2 1 2 2 2 4 6 3 6
11 12 14 15 15 14 12 10 8 6 5 4 3 1 2 1 1 2 4 5 5 5 3 4 4 4 5 4 6 4 5 3 4 6 8 6 4 2 3 7 5 3 3 3 1
15 14 15 15 14 12 10 8 6 5 3 2 1 1 2 3 3 4 6 8 8 7 4 4 5 4 5 5 3 2 2 4 7 6 5 5 5 2 3 5 3 2 3 0 2
18 17 16 15 14 12 10 8 6 6 4 3 3 4 5 6 7 8 9 10 10 11 9 7 6 6 7 8 6 6 6 6 9 8 3 4 3 4 2 0 3 3 4 6 5
21 19 19 18 16 13 11 9 10 9 8 7 7 7 9 10 12 12 12 12 13 13 11 8 9 8 9 10 8 9 7 6 7 6 4 3 5 5 0 2 3 3 5 5 7
22 21 20 19 17 14 12 13 12 12 12 11 13 12 13 14 14 15 14 14 16 15 12 10 9 9 10 11 10 10 8 8 10 8 5 3 1 2 4 6 6 1 5 6 7
24 23 20 18 16 15 13 13 13 14 15 15 16 17 17 17 17 17 15 15 14 11 10 10 8 8 9 10 10 11 11 11 9 9 7 4 2 4 4 1 6 5 2 4 4
24 23 21 19 16 16 16 15 15 16 17 17 18 19 14 9 7 7 6 6 5 5 7 8 7 8 8 10 9 9 14 12 12 10 9 7 1 6 3 5 1 4 4 5 6
24 24 22 20 18 16 16 17 17 16 16 18 17 16 9 8 7 6 4 3 2 3 6 7 8 8 9 9 8 10 12 15 13 11 8 10 5 2 2 4 3 5 7 8 5
23 23 22 21 19 17 17 17 16 15 17 17 16 14 10 9 10 8 5 5 5 4 6 7 7 7 8 9 6 12 15 15 15 14 9 13 7 6 3 6 8 2 7 9 8
22 21 21 20 17 17 19 18 17 16 14 12 15 18 15 9 9 10 8 7 8 9 9 9 8 7 7 12 13 14 14 15 13 11 11 15 9 7 6 8 10 9 5 7 8
22 22 20 17 17 18 19 18 17 14 10 9 10 14 11 9 7 9 11 12 13 14 13 12 11 11 14 15 16 15 17 14 13 11 11 14 10 6 12 13 15 14 6 5 6
15 19 20 19 19 20 21 19 17 14 12 10 10 13 10 10 8 11 13 12 14 15 15 14 14 17 19 21 21 17 16 16 18 13 12 12 12 10 12 11 14 14 7 6 5
9 12 16 18 19 20 20 18 15 12 11 12 12 11 9 11 12 14 15 13 14 16 16 14 9 19 20 22 24 24 21 19 21 21 17 12 14 15 15 16 19 18 11 5 5
9 10 11 13 14 16 19 15 14 11 12 14 13 12 14 14 16 17 16 16 15 17 18 19 17 15 22 25 25 25 27 26 23 24 25 23 17 14 17 19 18 17 15 14 12
9 11 12 12 14 15 17 13 11 8 8 9 11 14 17 18 19 19 20 22 20 21 25 26 28 19 20 22 25 26 30 30 32 31 30 29 22 22 18 21 22 24 17 20 19
10 11 11 11 10 12 13 11 10 9 9 10 13 16 17 19 22 22 23 24 26 27 29 31 34 34 25 25 29 34 34 30 31 35 36 38 32 29 29 26 23 22 18 20 26
8 9 9 9 12 14 12 10 10 11 12 13 15 17 18 19 22 24 24 25 26 28 31 35 38 39 40 38 34 36 38 38 36 39 39 42 40 35 35 34 32 32 27 22 25
9 9 9 9 11 11 10 10 12 15 18 18 17 18 19 20 21 23 24 25 28 30 34 38 39 41 42 43 46 45 43 44 47 45 47 45 47 43 40 39 38 37 35 30 26
11 10 10 11 11 11 12 13 17 20 19 17 17 18 20 20 21 22 26 29 29 32 34 38 41 43 43 47 50 51 50 47 44 49 49 48 47 49 48 45 44 44 42 36 29
13 14 13 14 15 15 17 19 20 20 17 18 20 22 23 25 27 30 31 32 35 37 36 38 40 42 43 46 50 51 51 50 48 51 50 48 48 48 49 50 48 46 48 44 41
Wind_Direction
214 210 196 180 169 163 164 247 111 123 137 143 139 132 119 109 112 135 140 131 102 113 144 163 204 221 243 268 281 292 314 323 307 356 26 31 6 342 171 180 241 308 14 74 90
212 206 191 181 171 164 152 127 117 118 122 124 121 116 113 115 123 132 120 89 87 97 122 128 156 194 248 278 284 307 297 322 354 29 32 19 37 66 221 218 155 152 94 53 91
208 201 192 179 170 167 153 138 127 122 119 118 116 114 112 114 117 130 134 105 72 62 35 37 54 325 290 275 274 278 272 306 333 11 66 24 9 61 176 186 164 114 80 339 212
206 198 189 178 170 169 159 146 134 127 122 114 107 102 101 101 103 100 99 97 77 49 43 44 58 59 346 332 342 292 279 257 84 59 71 46 22 19 103 175 172 204 255 282 229
172 177 178 175 173 163 151 144 135 127 122 115 107 101 98 95 94 89 79 69 65 50 43 43 39 51 52 34 31 263 233 254 72 41 52 57 36 29 31 50 7 25 310 291 223
144 152 163 165 162 153 147 143 136 127 118 113 108 100 95 99 92 84 82 64 42 29 10 22 19 28 42 42 63 189 197 262 306 297 32 30 7 29 67 54 28 2 344 252 240
165 159 159 159 156 155 150 145 140 131 113 108 110 103 88 86 73 351 7 349 335 344 347 346 353 20 12 45 352 309 67 33 290 289 312 323 8 302 266 263 215 297 344 297 232
176 171 166 163 164 161 157 155 150 143 123 112 133 138 85 73 325 315 325 324 329 324 332 322 334 11 340 7 355 355 48 358 330 318 315 323 324 337 270 251 272 217 331 55 326
187 183 179 177 176 175 171 170 174 179 162 140 139 230 262 281 268 287 302 311 324 324 310 306 308 314 308 315 335 287 309 316 314 309 295 313 326 22 286 250 236 234 238 204 149
195 194 193 191 193 195 196 198 208 221 231 252 273 275 288 287 277 274 278 292 305 312 303 299 289 276 276 289 317 316 324 329 309 299 333 315 323 309 183 140 176 219 189 200 203
201 201 203 204 207 210 215 223 231 239 248 267 280 274 275 277 277 274 274 281 290 296 297 282 276 274 275 292 303 306 309 321 302 322 349 0 320 289 316 65 83 202 240 249 201
205 207 207 211 213 216 221 228 234 244 253 269 278 282 280 281 282 282 280 276 283 287 282 274 271 286 291 300 308 302 308 297 285 302 320 350 322 329 44 33 20 21 162 252 247
210 209 211 214 213 214 223 233 237 243 258 265 274 281 283 284 282 278 276 272 269 270 269 264 263 275 291 307 314 315 298 290 295 301 312 351 107 156 137 94 59 11 292 224 250
213 216 216 218 216 219 224 234 240 248 260 270 274 276 285 274 263 268 263 270 283 280 263 269 276 276 285 292 313 302 293 290 287 288 302 320 73 177 181 181 15 350 338 280 258
212 218 219 222 223 224 227 236 243 251 261 263 270 277 266 255 254 231 205 176 89 268 259 269 280 301 295 292 311 271 277 275 281 289 294 285 302 284 178 210 254 316 345 16 340
214 216 218 224 229 229 234 239 246 249 256 256 259 261 259 232 234 245 221 200 202 220 261 279 283 285 289 293 267 262 277 287 292 289 291 279 298 247 231 264 259 340 10 355 4
217 215 219 223 224 225 233 239 244 249 252 265 261 264 260 242 232 236 242 234 231 237 234 244 255 249 250 258 260 275 290 299 299 295 281 283 294 200 240 264 293 271 338 349 335
213 216 219 218 218 224 232 239 247 245 247 248 265 255 265 255 241 260 251 242 249 251 247 239 217 226 230 241 254 270 284 291 298 293 274 272 273 229 257 267 281 281 290 309 334
198 205 210 216 219 226 235 242 237 232 235 230 242 254 257 253 252 247 258 264 274 283 278 274 269 265 260 263 277 265 267 269 287 285 274 271 267 231 238 250 260 279 289 317 336
181 197 208 214 222 230 238 237 241 260 261 255 255 263 275 270 268 260 261 260 275 288 289 274 272 260 252 267 267 273 276 271 279 284 278 277 272 267 237 231 257 280 279 277 323
184 190 197 206 213 224 238 253 267 276 287 287 287 284 284 282 272 275 269 272 272 278 276 270 261 212 242 259 261 261 276 279 278 273 283 291 290 279 259 249 248 272 279 279 281
201 206 214 221 232 247 258 264 266 270 275 275 270 272 276 278 278 277 281 285 283 278 278 278 276 240 234 244 256 254 266 273 280 280 281 290 292 288 281 261 272 268 270 283 284
204 209 213 214 216 234 249 266 269 268 262 248 249 261 265 266 273 278 280 279 282 283 283 286 286 289 274 254 247 252 264 268 274 276 276 281 287 290 288 289 286 282 279 273 274
209 219 223 227 228 233 244 261 271 270 263 257 253 260 267 270 274 277 278 281 278 277 277 278 281 283 286 286 277 273 272 272 267 266 272 273 276 276 284 286 286 289 291 291 273
241 233 232 234 241 248 252 251 257 256 257 261 270 274 273 273 274 278 282 280 281 280 278 278 280 280 280 281 279 278 274 272 274 272 269 272 271 274 272 274 276 275 274 276 263
248 249 245 246 246 250 254 257 260 267 278 286 284 277 278 279 279 277 279 282 282 281 281 281 283 280 278 276 276 276 278 277 272 272 272 270 271 270 268 263 261 266 269 270 266
248 247 249 252 252 255 257 260 266 274 275 277 280 286 291 291 291 289 288 285 284 285 284 282 281 280 281 277 275 276 276 273 272 272 272 270 267 267 268 268 267 262 262 261 261
Height
5875 5876 5878 5880 5882 5883 5883 5883 5883 5884 5884 5885 5885 5886 5886 5887 5888 5889 5889 5891 5893 5894 5895 5896 5897 5898 5899 5900 5900 5899 5900 5901 5901 5900 5899 5898 5897 5896 5896 5896 5896 5896 5895 5895 5895
5874 5876 5878 5880 5882 5884 5884 5884 5885 5885 5886 5886 5887 5888 5888 5889 5890 5890 5891 5891 5893 5895 5895 5897 5898 5899 5899 5900 5900 5899 5899 5900 5900 5900 5899 5898 5897 5895 5894 5895 5898 5896 5894 5895 5895
5873 5875 5877 5880 5882 5884 5885 5886 5886 5887 5887 5888 5889 5890 5890 5891 5892 5892 5892 5893 5894 5895 5896 5898 5899 5900 5900 5900 5900 5899 5900 5900 5899 5900 5900 5899 5897 5895 5895 5895 5896 5896 5894 5894 5895
5873 5875 5877 5880 5882 5884 5885 5887 5888 5889 5889 5890 5891 5892 5892 5893 5895 5893 5894 5895 5895 5895 5896 5898 5898 5898 5899 5899 5898 5897 5898 5899 5898 5898 5898 5897 5897 5896 5896 5895 5895 5895 5895 5893 5894
5873 5874 5877 5880 5883 5884 5886 5888 5889 5890 5891 5892 5893 5894 5894 5895 5895 5895 5896 5896 5896 5897 5897 5898 5897 5898 5899 5897 5897 5896 5898 5898 5896 5896 5897 5896 5896 5896 5896 5894 5894 5894 5893 5892 5893
5874 5875 5877 5880 5883 5885 5887 5889 5890 5892 5893 5894 5894 5895 5896 5897 5896 5896 5897 5897 5897 5898 5898 5898 5898 5898 5897 5897 5897 5898 5897 5897 5896 5896 5895 5895 5894 5894 5895 5894 5894 5894 5894 5892 5892
5876 5877 5879 5881 5884 5886 5888 5890 5891 5893 5894 5894 5895 5896 5897 5898 5897 5896 5897 5897 5897 5898 5898 5898 5898 5898 5898 5897 5898 5898 5897 5897 5897 5896 5895 5894 5895 5894 5894 5894 5894 5893 5893 5892 5892
5876 5878 5880 5882 5885 5887 5889 5891 5892 5893 5894 5895 5895 5896 5897 5897 5897 5897 5897 5897 5897 5897 5898 5897 5898 5898 5897 5898 5899 5897 5897 5898 5898 5896 5895 5894 5893 5892 5892 5893 5893 5893 5892 5892 5891
5875 5877 5880 5882 5885 5887 5889 5891 5892 5893 5894 5895 5896 5896 5897 5897 5897 5897 5896 5896 5895 5896 5896 5896 5897 5897 5897 5897 5899 5899 5898 5897 5897 5896 5895 5893 5892 5892 5891 5891 5893 5892 5891 5890 5890
5874 5876 5879 5882 5884 5887 5889 5891 5892 5893 5894 5895 5896 5897 5896 5896 5896 5897 5896 5895 5895 5894 5895 5895 5896 5897 5896 5896 5897 5897 5897 5896 5896 5896 5894 5893 5891 5890 5891 5891 5892 5891 5890 5889 5888
5872 5875 5878 5880 5883 5886 5889 5890 5893 5893 5893 5894 5894 5895 5894 5894 5894 5894 5895 5894 5893 5893 5894 5894 5895 5895 5894 5894 5895 5896 5896 5895 5896 5896 5895 5893 5891 5890 5890 5891 5890 5890 5890 5889 5888
5869 5873 5876 5879 5882 5885 5887 5888 5890 5891 5892 5892 5891 5892 5892 5892 5891 5891 5892 5893 5891 5891 5891 5892 5893 5893 5893 5893 5894 5895 5895 5895 5895 5895 5894 5892 5891 5891 5891 5890 5889 5888 5888 5887 5887
5867 5870 5873 5877 5880 5883 5885 5886 5887 5888 5889 5890 5890 5889 5889 5888 5887 5887 5888 5888 5888 5889 5890 5891 5892 5892 5892 5892 5893 5894 5893 5893 5894 5893 5893 5893 5891 5890 5891 5890 5888 5886 5885 5885 5884
5864 5867 5871 5875 5880 5881 5883 5884 5884 5886 5887 5888 5887 5886 5886 5884 5884 5884 5884 5885 5886 5887 5888 5889 5890 5891 5891 5890 5892 5892 5891 5892 5892 5892 5891 5891 5892 5891 5890 5889 5887 5887 5886 5884 5883
5861 5865 5869 5873 5876 5879 5881 5881 5882 5884 5884 5884 5883 5882 5883 5884 5883 5883 5883 5883 5885 5887 5888 5889 5889 5890 5890 5889 5890 5891 5890 5890 5889 5889 5890 5889 5889 5890 5889 5888 5887 5886 5884 5882 5881
5858 5862 5866 5870 5873 5876 5877 5878 5880 5883 5881 5881 5880 5880 5881 5881 5882 5881 5882 5883 5884 5885 5886 5887 5888 5888 5888 5887 5888 5889 5888 5888 5887 5886 5886 5884 5887 5888 5888 5887 5886 5885 5883 5882 5879
5856 5860 5864 5867 5871 5872 5873 5875 5878 5878 5879 5879 5878 5877 5879 5880 5880 5880 5881 5882 5882 5883 5883 5884 5885 5886 5887 5886 5886 5886 5885 5885 5886 5884 5883 5882 5884 5887 5886 5885 5886 5885 5883 5881 5879
5853 5857 5861 5864 5867 5868 5870 5872 5874 5875 5876 5877 5876 5875 5878 5879 5881 5880 5880 5879 5879 5880 5881 5881 5881 5883 5883 5883 5883 5882 5882 5881 5880 5881 5880 5879 5881 5885 5882 5884 5884 5883 5881 5880 5878
5850 5854 5857 5861 5863 5865 5867 5868 5869 5872 5875 5876 5876 5876 5878 5878 5879 5879 5878 5879 5879 5880 5881 5881 5881 5879 5880 5879 5879 5879 5879 5878 5877 5877 5877 5877 5878 5880 5881 5881 5880 5880 5880 5878 5876
5849 5852 5855 5857 5860 5862 5863 5865 5868 5871 5873 5873 5874 5875 5877 5877 5878 5876 5876 5877 5877 5877 5877 5879 5880 5877 5877 5876 5877 5876 5877 5876 5874 5873 5874 5875 5875 5875 5876 5877 5877 5877 5878 5877 5876
5850 5852 5854 5856 5858 5859 5860 5864 5867 5869 5869 5870 5871 5872 5872 5872 5872 5871 5873 5874 5874 5872 5872 5872 5875 5878 5873 5873 5873 5872 5871 5871 5871 5870 5868 5870 5873 5873 5873 5872 5873 5874 5874 5875 5874
5849 5851 5853 5855 5858 5859 5860 5862 5864 5866 5867 5867 5868 5867 5867 5867 5866 5866 5866 5866 5867 5867 5865 5864 5863 5869 5869 5868 5868 5867 5864 5866 5865 5865 5864 5863 5866 5867 5867 5868 5868 5870 5871 5870 5870
5847 5849 5851 5853 5855 5856 5857 5860 5861 5862 5863 5864 5863 5863 5862 5862 5861 5861 5862 5861 5860 5859 5858 5857 5854 5853 5860 5863 5862 5859 5857 5858 5857 5856 5855 5854 5858 5859 5859 5861 5862 5863 5865 5867 5866
5847 5848 5850 5851 5852 5853 5855 5857 5858 5858 5858 5859 5859 5858 5858 5858 5857 5857 5856 5855 5855 5853 5852 5848 5846 5846 5845 5847 5851 5850 5848 5848 5848 5846 5846 5845 5847 5851 5853 5853 5854 5855 5856 5858 5859
5845 5846 5848 5849 5849 5850 5851 5853 5853 5853 5853 5854 5854 5853 5853 5853 5852 5851 5850 5849 5847 5846 5843 5840 5839 5838 5837 5836 5834 5835 5837 5838 5836 5837 5834 5837 5835 5840 5842 5844 5845 5846 5846 5849 5850
5843 5844 5845 5845 5846 5847 5847 5848 5848 5847 5848 5849 5848 5848 5848 5848 5847 5846 5844 5842 5841 5837 5835 5832 5830 5828 5827 5825 5822 5820 5822 5824 5826 5823 5823 5823 5825 5824 5827 5830 5832 5834 5837 5840 5843
5840 5841 5843 5842 5843 5843 5843 5843 5843 5843 5845 5844 5843 5842 5841 5840 5839 5837 5835 5833 5830 5828 5827 5823 5819 5817 5816 5813 5809 5809 5809 5809 5809 5806 5808 5809 5812 5813 5813 5814 5817 5821 5823 5826 5831